Terminal Aerodrome Forecast
Issued by NWS Duluth, MN

Home | Current Version | Previous Version | Text Only | Print | Product List | Glossary On
Versions: 1 2 3 4 5 6 7 8 9 10 11 12 13 14 15 16 17 18 19 20 21 22 23 24 25 26 27 28 29 30 31 32 33 34 35 36 37 38 39 40 41 42 43 44 45 46 47 48 49
000
FTUS43 KDLH 011200 AAA
TAFDLH
TAF AMD
KDLH 011255Z 0113/0212 13011KT 5SM -RA BR OVC008
      TEMPO 0114/0116 2SM -RA BR OVC005
     FM011600 13008KT 3SM -RA BR OVC005
     FM011800 13010KT 3SM -RA BR OVC005
     FM012300 14006KT 2SM -DZ BR OVC005
     FM020400 20004KT 3/4SM -DZ BR OVC004=

USA.gov is the U.S. government's official web portal to all federal, state and local government web resources and services.